"startDT [UTC]","vpos","CH4 [ppm]","stdev(CH4) [ppm]","CO2 [ppm]","stdev(CO2) [ppm]","H2O [ppm]","stdev(H2O)","p_LGR [torr]","T_LGR [C]","mt1_LGR [us]","mt2_LGR [us]","T_ECpre [C]","T_EC1 [C]","T_EC2 [C]","p_inlet [hPa]","p_in [hPa]","p_out [hPa]","T_inlet [C]","RH_inlet [%]","dwpt_inlet [C]","T_vent [C]","RH_vent [%]","dwpt_vent [C]","flow_vent [l min-1]","flow_inlet [l min-1]","dwpt_sample [C]","T_room [C]"
2012-08-14 00:00:00,0.0,1.9030,0.0010,385.11,0.33,9.8,17.2,138.05,31.70,24.66,36.56,0.99,-22.20,-26.17,-48,545,-928,26.7,21.5,2.8,26.6,1.3,-30.9,5.73,2.40,-28.8,30.2
2012-08-14 00:01:00,0.0,1.9030,0.0009,385.30,0.37,13.9,17.5,138.06,31.70,24.66,36.55,0.97,-22.65,-26.18,-47,545,-928,26.7,21.7,3.0,26.6,1.3,-30.9,5.73,2.40,-28.7,30.2
2012-08-14 00:02:00,0.0,1.9033,0.0008,385.14,0.36,8.2,17.0,138.05,31.70,24.66,36.55,1.00,-23.08,-26.20,-48,545,-927,26.6,22.0,3.1,26.6,1.3,-30.9,5.73,2.41,-28.7,30.2
2012-08-14 00:03:00,0.0,1.9035,0.0011,385.13,0.26,13.2,18.5,138.05,31.70,24.66,36.55,1.07,-23.48,-26.21,-48,545,-927,26.6,22.1,3.2,26.6,1.3,-30.9,5.73,2.41,-28.7,30.2
2012-08-14 00:04:00,0.0,1.9031,0.0010,385.10,0.30,9.1,17.4,138.05,31.70,24.67,36.55,1.02,-23.86,-26.22,-48,545,-927,26.6,22.3,3.3,26.6,1.3,-30.9,5.73,2.40,-28.7,30.2
2012-08-14 00:05:00,0.0,1.9041,0.0011,385.04,0.33,10.4,20.3,138.05,31.70,24.66,36.55,0.97,-24.21,-26.23,-48,545,-927,26.6,22.3,3.3,26.6,1.3,-30.9,5.73,2.39,-28.7,30.3
2012-08-14 00:06:00,0.0,1.9047,0.0010,385.19,0.26,17.0,20.7,138.05,31.69,24.66,36.54,0.98,-24.54,-26.25,-48,545,-928,26.6,22.1,3.2,26.6,1.3,-31.0,5.73,2.39,-28.7,30.2
2012-08-14 00:07:00,0.0,1.9051,0.0009,385.15,0.31,10.9,17.2,138.05,31.69,24.66,36.54,1.04,-24.85,-26.26,-47,545,-927,26.6,22.6,3.5,26.6,1.3,-30.9,5.73,2.40,-28.6,30.2
2012-08-14 00:08:00,0.0,1.9055,0.0008,385.09,0.30,17.6,24.2,138.05,31.69,24.66,36.54,1.05,-25.13,-26.26,-47,545,-927,26.6,23.0,3.7,26.6,1.3,-30.9,5.73,2.41,-28.6,30.2
2012-08-14 00:09:00,0.0,1.9052,0.0010,385.08,0.27,13.4,18.6,138.05,31.69,24.66,36.55,0.99,-25.41,-26.28,-48,545,-927,26.6,23.3,4.0,26.5,1.3,-30.9,5.73,2.41,-28.6,30.2
2012-08-14 00:10:00,0.0,1.9055,0.0009,385.27,0.33,14.0,18.5,138.05,31.69,24.66,36.54,0.96,-25.67,-26.29,-47,545,-927,26.6,22.8,3.6,26.5,1.3,-30.9,5.73,2.41,-28.6,30.2
2012-08-14 00:11:00,0.0,1.9054,0.0011,385.30,0.29,13.6,23.5,138.05,31.69,24.66,36.54,1.01,-25.91,-26.30,-47,545,-928,26.6,22.5,3.5,26.5,1.3,-30.9,5.73,2.40,-28.6,30.2
2012-08-14 00:12:00,0.0,1.9055,0.0012,385.11,0.31,11.5,21.4,138.05,31.69,24.66,36.54,1.06,-26.15,-26.30,-48,545,-927,26.6,23.2,3.9,26.5,1.3,-30.9,5.73,2.39,-28.6,30.2
2012-08-14 00:13:00,0.0,1.9060,0.0010,385.12,0.35,10.7,16.0,138.05,31.68,24.66,36.54,0.94,-26.18,-26.31,-47,545,-927,26.6,23.7,4.2,26.5,1.3,-31.0,5.73,2.39,-28.5,30.2
2012-08-14 00:14:00,0.0,1.9057,0.0009,384.86,0.30,14.4,21.5,138.05,31.69,24.66,36.55,1.04,-25.97,-26.32,-47,545,-927,26.6,24.0,4.4,26.5,1.3,-30.9,5.73,2.40,-28.5,30.2
2012-08-14 00:15:00,0.0,1.9059,0.0008,385.05,0.32,11.9,17.6,138.05,31.69,24.66,36.55,0.98,-26.11,-26.33,-47,545,-927,26.6,23.8,4.2,26.5,1.3,-30.9,5.73,2.41,-28.5,30.2
2012-08-14 00:16:00,0.0,1.9059,0.0011,385.13,0.33,16.7,21.3,138.05,31.68,24.66,36.55,0.93,-26.28,-26.34,-48,545,-928,26.6,23.1,3.8,26.5,1.3,-30.9,5.73,2.41,-28.5,30.2
2012-08-14 00:17:00,0.0,1.9058,0.0010,384.98,0.38,12.0,17.3,138.05,31.68,24.66,36.55,0.98,-26.01,-26.35,-47,545,-927,26.6,23.2,3.9,26.5,1.3,-31.0,5.73,2.41,-28.5,30.2
2012-08-14 00:18:00,0.0,1.9059,0.0010,385.01,0.28,18.8,20.3,138.05,31.68,24.66,36.54,1.01,-26.08,-26.36,-48,545,-927,26.6,23.3,3.9,26.5,1.3,-31.2,5.73,2.40,-28.5,30.3
2012-08-14 00:19:00,0.0,1.9059,0.0008,385.23,0.32,20.2,23.5,138.05,31.68,24.66,36.55,1.06,-26.26,-26.37,-47,545,-927,26.6,22.9,3.7,26.5,1.3,-31.1,5.73,2.40,-28.5,30.3
2012-08-14 00:20:00,0.0,1.9059,0.0009,385.07,0.32,20.7,22.1,138.05,31.68,24.66,36.55,0.93,-26.18,-26.38,-47,545,-928,26.6,23.0,3.8,26.5,1.3,-31.1,5.73,2.39,-28.4,30.2
2012-08-14 00:21:00,0.0,1.9057,0.0010,384.85,0.39,24.2,25.1,138.05,31.68,24.66,36.56,1.03,-26.05,-26.38,-47,545,-927,26.6,23.5,4.0,26.5,1.3,-31.2,5.73,2.40,-28.4,30.2
2012-08-14 00:22:00,0.0,1.9058,0.0011,385.17,0.33,22.2,26.3,138.05,31.68,24.66,36.54,0.96,-26.22,-26.40,-47,545,-928,26.6,23.0,3.7,26.5,1.3,-31.2,5.73,2.41,-28.4,30.3
2012-08-14 00:23:00,0.0,1.9058,0.0009,385.01,0.36,22.7,24.5,138.05,31.68,24.66,36.55,0.91,-26.32,-26.40,-47,545,-927,26.6,23.1,3.8,26.5,1.3,-31.2,5.73,2.41,-28.4,30.3
2012-08-14 00:24:00,0.0,1.9062,0.0011,384.93,0.33,21.8,20.5,138.05,31.68,24.66,36.54,1.00,-26.06,-26.41,-47,545,-927,26.6,23.3,3.9,26.5,1.3,-31.2,5.73,2.41,-28.4,30.2
2012-08-14 00:25:00,0.0,1.9060,0.0010,385.05,0.29,17.7,21.6,138.05,31.68,24.66,36.55,1.06,-26.16,-26.42,-47,545,-927,26.6,22.5,3.4,26.5,1.3,-31.2,5.73,2.39,-28.4,30.3
2012-08-14 00:26:00,0.0,1.9056,0.0010,385.33,0.25,20.1,24.9,138.05,31.68,24.66,36.55,1.04,-26.35,-26.43,-47,545,-927,26.6,21.7,2.9,26.5,1.3,-31.1,5.73,2.39,-28.4,30.3
2012-08-14 00:27:00,0.0,1.9056,0.0010,385.29,0.32,17.0,20.0,138.05,31.68,24.66,36.55,0.88,-26.30,-26.05,-47,545,-928,26.6,22.0,3.1,26.5,1.3,-31.0,5.73,2.40,-28.4,30.3
2012-08-14 00:28:00,0.0,1.9059,0.0010,385.28,0.27,17.3,20.1,138.05,31.68,24.66,36.55,0.81,-26.37,-24.42,-47,545,-928,26.6,22.0,3.1,26.5,1.4,-30.3,5.73,2.41,-28.4,30.3
2012-08-14 00:29:00,0.0,1.9060,0.0010,385.25,0.31,23.6,27.0,138.05,31.68,24.66,36.55,0.86,-26.48,-22.46,-47,545,-927,26.6,22.2,3.2,26.5,1.6,-29.1,5.73,2.41,-28.4,30.3
2012-08-14 00:30:00,0.0,1.9052,0.0010,385.45,0.33,21.6,24.2,138.05,31.68,24.66,36.54,0.90,-26.54,-20.50,-47,545,-927,26.6,21.6,2.9,26.5,1.7,-28.4,5.73,2.41,-28.4,30.3
2012-08-14 00:31:00,0.0,1.9049,0.0009,385.17,0.34,16.6,22.8,138.05,31.68,24.66,36.55,0.94,-26.57,-18.61,-47,545,-928,26.6,22.0,3.1,26.5,1.7,-28.1,5.73,2.40,-28.4,30.3
2012-08-14 00:32:00,0.0,1.9054,0.0011,385.11,0.31,23.4,24.9,138.05,31.68,24.66,36.54,0.94,-26.59,-16.81,-47,545,-927,26.6,22.4,3.3,26.5,1.7,-28.1,5.73,2.39,-28.4,30.3
2012-08-14 00:33:00,0.0,1.9048,0.0009,385.25,0.30,15.7,19.4,138.05,31.68,24.66,36.54,0.86,-26.59,-15.10,-47,545,-928,26.6,22.0,3.1,26.5,1.7,-28.1,5.73,2.40,-28.3,30.4
2012-08-14 00:34:00,0.0,1.9048,0.0009,385.20,0.25,17.3,24.7,138.05,31.68,24.66,36.55,0.83,-26.59,-13.49,-47,545,-927,26.6,22.3,3.3,26.5,1.7,-28.2,5.73,2.42,-28.3,30.4
2012-08-14 00:35:00,0.0,1.9047,0.0010,385.19,0.29,26.1,25.8,138.05,31.68,24.66,36.54,0.85,-26.58,-11.97,-47,545,-928,26.6,22.4,3.4,26.5,1.7,-28.4,5.73,2.41,-28.3,30.4
2012-08-14 00:36:00,0.0,1.9046,0.0012,384.99,0.40,26.3,24.7,138.05,31.68,24.66,36.55,0.90,-26.57,-10.52,-47,545,-927,26.6,22.8,3.6,26.5,1.7,-28.6,5.73,2.40,-28.3,30.4
2012-08-14 00:37:00,0.0,1.9048,0.0010,385.30,0.27,31.0,27.6,138.05,31.68,24.66,36.55,0.93,-26.55,-9.14,-47,545,-927,26.6,22.5,3.4,26.5,1.6,-28.7,5.73,2.39,-28.3,30.4
2012-08-14 00:38:00,0.0,1.9048,0.0009,385.38,0.29,26.2,28.0,138.05,31.68,24.66,36.54,0.94,-26.55,-7.85,-47,545,-927,26.6,22.1,3.2,26.5,1.6,-28.8,5.73,2.40,-28.2,30.3
2012-08-14 00:39:00,0.0,1.9045,0.0010,385.28,0.30,24.3,25.9,138.05,31.68,24.66,36.55,0.94,-26.53,-6.61,-47,545,-928,26.6,22.2,3.3,26.6,1.6,-29.0,5.73,2.41,-28.2,30.4
2012-08-14 00:40:00,0.0,1.9049,0.0010,385.15,0.27,29.7,26.4,138.05,31.68,24.66,36.55,1.06,-44.84,-25.86,-47,545,-928,26.6,22.7,3.6,26.6,1.6,-29.0,5.42,2.46,-32.3,30.4
2012-08-14 00:41:00,0.0,1.9046,0.0012,385.03,0.38,23.1,20.4,138.05,31.68,24.66,36.55,0.83,-26.50,-4.33,-47,545,-927,26.6,22.5,3.4,26.6,1.6,-29.1,5.73,2.41,-28.2,30.4
2012-08-14 00:42:00,0.0,1.9048,0.0009,385.18,0.30,34.6,28.2,138.05,31.68,24.66,36.55,0.89,-26.49,-3.27,-47,545,-928,26.6,22.3,3.3,26.6,1.6,-29.2,5.73,2.39,-28.1,30.4
2012-08-14 00:43:00,0.0,1.9047,0.0010,385.47,0.29,27.9,26.0,138.05,31.68,24.66,36.55,0.90,-26.48,-2.27,-47,545,-927,26.6,21.8,3.0,26.6,1.6,-29.3,5.73,2.39,-28.1,30.4
2012-08-14 00:44:00,0.0,1.9044,0.0010,385.24,0.33,28.2,28.1,138.05,31.68,24.66,36.55,0.92,-26.46,-1.31,-47,545,-928,26.6,22.0,3.1,26.6,1.5,-29.5,5.73,2.41,-28.1,30.5
2012-08-14 00:45:00,0.0,1.9043,0.0008,385.00,0.32,30.2,25.8,138.05,31.69,24.66,36.55,0.94,-26.45,-0.41,-47,545,-927,26.6,22.6,3.5,26.6,1.5,-29.5,5.73,2.42,-28.1,30.5
2012-08-14 00:46:00,0.0,1.9046,0.0011,385.59,0.34,31.9,22.4,138.05,31.69,24.66,36.54,0.94,-26.44,0.45,-47,546,-928,26.6,22.3,3.3,26.6,1.5,-29.6,5.73,2.41,-28.0,30.5
2012-08-14 00:47:00,0.0,1.9037,0.0011,385.54,0.24,29.4,24.8,138.05,31.69,24.66,36.54,0.95,-26.42,1.26,-47,546,-927,26.6,22.1,3.2,26.6,1.5,-29.7,5.73,2.40,-28.0,30.6
2012-08-14 00:48:00,0.0,1.9031,0.0011,385.35,0.32,30.5,28.8,138.05,31.69,24.66,36.54,0.94,-26.41,2.01,-47,546,-928,26.6,21.9,3.1,26.6,1.5,-29.7,5.73,2.40,-28.0,30.6
2012-08-14 00:49:00,0.0,1.9028,0.0011,385.29,0.36,30.8,24.3,138.05,31.69,24.66,36.54,0.90,-26.40,2.67,-47,546,-928,26.7,22.7,3.6,26.6,1.5,-29.7,5.73,2.42,-28.0,30.5
2012-08-14 00:50:00,0.0,1.9024,0.0010,385.06,0.42,35.0,29.0,138.05,31.70,24.66,36.55,0.91,-26.38,3.10,-47,546,-927,26.7,22.6,3.5,26.6,1.5,-29.8,5.73,2.43,-28.0,30.5
2012-08-14 00:51:00,0.0,1.9025,0.0010,385.22,0.28,33.6,27.0,138.05,31.70,24.66,36.55,0.88,-26.37,3.29,-47,546,-927,26.6,22.1,3.2,26.6,1.5,-29.9,5.73,2.41,-28.0,30.6
2012-08-14 00:52:00,0.0,1.9020,0.0009,385.05,0.30,30.1,28.7,138.05,31.70,24.66,36.55,0.90,-26.36,3.54,-47,546,-927,26.7,22.9,3.7,26.6,1.5,-29.9,5.73,2.40,-28.0,30.6
2012-08-14 00:53:00,0.0,1.9012,0.0009,385.38,0.32,34.5,28.0,138.05,31.70,24.66,36.55,0.91,-26.35,3.96,-47,545,-928,26.7,21.8,3.0,26.6,1.5,-29.9,5.73,2.40,-27.9,30.5
2012-08-14 00:54:00,0.0,1.9010,0.0012,385.62,0.26,39.1,33.2,138.05,31.70,24.66,36.55,0.92,-26.34,4.53,-47,546,-928,26.7,20.8,2.4,26.6,1.5,-30.0,5.73,2.42,-27.9,30.6
2012-08-14 00:55:00,0.0,1.9009,0.0009,385.48,0.31,39.3,29.8,138.05,31.70,24.66,36.55,0.92,-26.33,5.12,-47,546,-927,26.7,20.6,2.3,26.6,1.4,-30.1,5.73,2.42,-27.9,30.6
2012-08-14 00:56:00,0.0,1.9007,0.0010,385.35,0.35,40.2,32.3,138.05,31.70,24.66,36.55,0.94,-26.32,5.66,-47,546,-927,26.7,21.3,2.8,26.6,1.4,-30.1,5.73,2.40,-27.9,30.6
2012-08-14 00:57:00,0.0,1.9009,0.0010,385.29,0.28,38.1,30.8,138.05,31.70,24.66,36.55,0.94,-26.31,6.18,-47,546,-927,26.7,21.6,2.9,26.6,1.4,-30.0,5.73,2.40,-27.9,30.6
2012-08-14 00:58:00,0.0,1.9011,0.0009,385.11,0.37,34.1,26.0,138.05,31.70,24.66,36.55,0.95,-26.31,6.66,-47,546,-927,26.7,22.0,3.2,26.6,1.4,-30.1,5.73,2.41,-27.9,30.6
2012-08-14 00:59:00,0.0,1.9019,0.0012,385.13,0.34,43.4,28.8,138.05,31.70,24.66,36.55,0.95,-26.30,7.12,-47,546,-928,26.7,21.7,3.0,26.6,1.4,-30.1,5.73,2.42,-27.9,30.6
2012-08-14 01:00:00,0.0,1.9014,0.0011,385.51,0.31,41.3,27.5,138.05,31.71,24.66,36.54,0.94,-26.29,7.58,-47,546,-928,26.7,20.8,2.4,26.6,1.4,-30.1,5.73,2.41,-27.8,30.6
2012-08-14 01:01:00,0.0,1.9014,0.0011,385.49,0.30,44.2,28.3,138.05,31.71,24.66,36.54,0.93,-26.28,8.02,-47,546,-928,26.7,20.7,2.3,26.6,1.4,-30.0,5.73,2.40,-27.8,30.5
2012-08-14 01:02:00,0.0,1.9017,0.0011,385.45,0.33,43.3,31.6,138.05,31.71,24.66,36.54,0.91,-26.27,8.44,-47,546,-927,26.7,20.4,2.1,26.6,1.4,-30.1,5.73,2.39,-27.8,30.5
2012-08-14 01:03:00,0.0,1.9009,0.0011,385.41,0.38,42.0,29.9,138.05,31.71,24.66,36.55,0.91,-26.27,8.85,-47,546,-927,26.7,21.1,2.6,26.6,1.4,-30.1,5.73,2.41,-27.8,30.5
2012-08-14 01:04:00,0.0,1.9018,0.0010,385.37,0.29,40.1,31.3,138.05,31.71,24.66,36.55,0.90,-26.26,9.24,-47,546,-928,26.7,21.4,2.8,26.6,1.4,-30.1,5.73,2.42,-27.8,30.6
2012-08-14 01:05:00,0.0,1.9016,0.0010,385.45,0.32,46.8,32.4,138.05,31.71,24.66,36.55,0.91,-26.25,9.62,-47,546,-928,26.7,21.1,2.6,26.6,1.4,-30.0,5.73,2.41,-27.8,30.5
2012-08-14 01:06:00,0.0,1.9019,0.0010,385.41,0.29,38.7,29.2,138.05,31.71,24.66,36.54,0.89,-26.25,9.97,-47,546,-928,26.7,21.2,2.7,26.6,1.4,-30.0,5.73,2.39,-27.8,30.5
2012-08-14 01:07:00,0.0,1.9022,0.0010,385.23,0.30,47.4,35.0,138.05,31.71,24.66,36.55,0.92,-26.24,10.34,-47,546,-927,26.7,21.9,3.2,26.6,1.4,-30.1,5.73,2.39,-27.8,30.6
2012-08-14 01:08:00,0.0,1.9015,0.0011,384.92,0.35,37.2,26.4,138.05,31.71,24.66,36.55,0.93,-26.23,10.69,-47,546,-927,26.7,23.0,3.9,26.6,1.4,-30.1,5.73,2.41,-27.7,30.6
2012-08-14 01:09:00,0.0,1.9016,0.0010,385.22,0.36,41.0,26.6,138.05,31.72,24.66,36.54,0.94,-26.22,11.03,-47,546,-927,26.7,23.0,3.8,26.6,1.4,-30.0,5.73,2.42,-27.8,30.6
2012-08-14 01:10:00,0.0,1.9015,0.0012,384.71,0.30,45.3,31.5,138.05,31.72,24.66,36.55,0.93,-26.22,11.36,-47,546,-928,26.7,23.2,3.9,26.6,1.4,-30.0,5.73,2.41,-27.7,30.5
2012-08-14 01:11:00,0.0,1.9011,0.0010,385.28,0.42,42.0,29.4,138.05,31.72,24.66,36.54,0.94,-26.21,11.69,-47,546,-927,26.7,22.0,3.2,26.6,1.4,-30.0,5.73,2.39,-27.7,30.5
2012-08-14 01:12:00,0.0,1.9014,0.0009,385.48,0.32,44.2,36.6,138.05,31.72,24.66,36.54,0.94,-26.21,11.99,-47,546,-927,26.7,21.8,3.1,26.6,1.4,-30.1,5.73,2.39,-27.7,30.6
2012-08-14 01:13:00,0.0,1.9015,0.0009,385.23,0.31,46.3,33.4,138.05,31.73,24.66,36.54,0.94,-26.20,12.29,-47,546,-927,26.7,22.0,3.2,26.7,1.4,-30.0,5.73,2.42,-27.7,30.6
2012-08-14 01:14:00,0.0,1.9012,0.0010,385.38,0.33,52.2,34.5,138.05,31.73,24.66,36.55,0.95,-26.19,12.57,-47,546,-927,26.7,21.9,3.2,26.7,1.4,-30.0,5.73,2.42,-27.7,30.6
2012-08-14 01:15:00,0.0,1.9012,0.0010,385.19,0.36,50.9,33.7,138.05,31.73,24.66,36.55,0.94,-26.19,12.85,-47,546,-927,26.7,22.1,3.3,26.7,1.4,-30.0,5.73,2.40,-27.7,30.6
2012-08-14 01:16:00,0.0,1.9020,0.0010,385.15,0.49,44.1,28.3,138.05,31.73,24.66,36.54,0.94,-26.18,13.11,-47,546,-928,26.7,22.8,3.8,26.7,1.4,-30.0,5.73,2.39,-27.7,30.6
2012-08-14 01:17:00,0.0,1.9018,0.0009,385.14,0.51,52.6,32.1,138.05,31.73,24.66,36.55,0.95,-26.18,13.36,-47,546,-928,26.7,22.5,3.6,26.7,1.4,-30.1,5.73,2.40,-27.7,30.6
2012-08-14 01:18:00,0.0,1.9021,0.0011,385.46,0.36,45.7,31.5,138.05,31.73,24.66,36.55,0.94,-26.17,13.61,-47,546,-928,26.7,22.3,3.4,26.7,1.4,-30.2,5.73,2.42,-27.7,30.6
2012-08-14 01:19:00,0.0,1.9024,0.0012,385.30,0.30,49.2,29.7,138.05,31.73,24.66,36.55,0.94,-26.17,13.84,-47,546,-927,26.8,22.7,3.7,26.7,1.4,-30.2,5.73,2.41,-27.7,30.6
2012-08-14 01:20:00,0.0,1.9021,0.0010,385.23,0.40,47.4,31.3,138.05,31.73,24.66,36.55,0.92,-26.16,14.06,-47,546,-928,26.7,23.0,3.9,26.7,1.4,-30.2,5.73,2.39,-27.7,30.6
2012-08-14 01:21:00,0.0,1.9025,0.0010,385.05,0.38,44.6,30.1,138.05,31.74,24.66,36.54,0.91,-26.15,14.27,-47,546,-927,26.7,23.0,3.9,26.7,1.4,-30.2,5.73,2.40,-27.7,30.7
2012-08-14 01:22:00,0.0,1.9021,0.0009,385.39,0.28,52.5,34.2,138.05,31.74,24.66,36.55,0.89,-26.15,14.48,-47,546,-928,26.8,22.1,3.3,26.7,1.4,-30.2,5.73,2.42,-27.7,30.6
2012-08-14 01:23:00,0.0,1.9023,0.0010,385.45,0.25,48.0,33.4,138.05,31.74,24.66,36.55,0.92,-26.14,14.68,-47,546,-927,26.8,22.0,3.3,26.7,1.4,-30.2,5.73,2.42,-27.6,30.6
2012-08-14 01:24:00,0.0,1.9030,0.0010,385.37,0.37,50.0,28.8,138.05,31.74,24.66,36.54,0.93,-26.14,14.87,-47,546,-927,26.8,22.7,3.7,26.7,1.4,-30.2,5.73,2.40,-27.7,30.6
2012-08-14 01:25:00,0.0,1.9031,0.0011,385.41,0.25,55.1,31.6,138.05,31.74,24.66,36.55,0.91,-26.13,15.04,-47,546,-927,26.8,22.2,3.4,26.7,1.4,-30.2,5.73,2.39,-27.6,30.6
2012-08-14 01:26:00,0.0,1.9030,0.0012,385.59,0.31,43.3,27.3,138.05,31.75,24.66,36.55,0.92,-26.13,15.21,-47,546,-928,26.8,22.6,3.7,26.7,1.4,-30.2,5.73,2.40,-27.7,30.6
2012-08-14 01:27:00,0.0,1.9024,0.0010,385.08,0.30,51.7,32.7,138.05,31.75,24.66,36.55,0.92,-26.13,15.37,-47,546,-928,26.8,23.2,4.0,26.7,1.4,-30.2,5.73,2.42,-27.6,30.6
2012-08-14 01:28:00,0.0,1.9025,0.0010,385.27,0.32,48.0,31.7,138.05,31.75,24.66,36.55,0.94,-26.12,15.53,-47,546,-928,26.8,23.1,4.0,26.7,1.4,-30.2,5.73,2.41,-27.6,30.7
2012-08-14 01:29:00,0.0,1.9021,0.0009,385.49,0.32,51.5,33.7,138.05,31.75,24.66,36.55,0.93,-26.12,15.68,-48,546,-927,26.8,23.4,4.1,26.7,1.4,-30.2,5.73,2.39,-27.6,30.6
2012-08-14 01:30:00,0.0,1.9015,0.0009,385.41,0.32,54.2,29.8,138.05,31.75,24.66,36.55,0.93,-26.11,15.82,-47,546,-928,26.8,23.3,4.1,26.7,1.4,-30.2,5.73,2.40,-27.6,30.6
2012-08-14 01:31:00,0.0,1.9020,0.0008,385.12,0.31,52.6,31.5,138.05,31.75,24.66,36.55,0.93,-26.11,15.97,-47,546,-928,26.8,23.3,4.1,26.7,1.4,-30.2,5.73,2.42,-27.6,30.6
2012-08-14 01:32:00,0.0,1.9019,0.0011,385.40,0.31,56.9,31.1,138.05,31.75,24.66,36.55,0.94,-26.10,16.10,-48,546,-927,26.8,22.9,3.9,26.7,1.4,-30.2,5.73,2.42,-27.6,30.7
2012-08-14 01:33:00,0.0,1.9016,0.0010,385.61,0.32,44.7,29.9,138.05,31.76,24.66,36.54,0.93,-26.10,16.22,-48,546,-928,26.8,22.4,3.6,26.8,1.4,-30.2,5.73,2.39,-27.6,30.7
2012-08-14 01:34:00,0.0,1.9012,0.0009,385.48,0.42,52.2,31.8,138.05,31.76,24.66,36.55,0.95,-26.09,16.35,-48,546,-927,26.8,22.8,3.8,26.8,1.4,-30.2,5.73,2.39,-27.6,30.7
2012-08-14 01:35:00,0.0,1.9009,0.0010,384.88,0.32,47.9,30.2,138.05,31.76,24.66,36.55,0.94,-26.08,16.46,-47,546,-928,26.8,23.4,4.2,26.8,1.4,-30.2,5.73,2.41,-27.6,30.7
2012-08-14 01:36:00,0.0,1.9007,0.0010,384.74,0.40,56.1,33.8,138.05,31.76,24.66,36.55,0.94,-26.08,16.57,-47,546,-928,26.8,23.8,4.4,26.7,1.4,-30.2,5.73,2.42,-27.6,30.7
2012-08-14 01:37:00,0.0,1.9008,0.0009,385.14,0.36,50.9,32.5,138.05,31.76,24.66,36.54,0.95,-26.08,16.68,-47,546,-927,26.8,23.2,4.1,26.8,1.4,-30.2,5.73,2.41,-27.5,30.7
2012-08-14 01:38:00,0.0,1.8994,0.0010,385.25,0.32,51.2,29.1,138.05,31.77,24.66,36.54,0.95,-26.07,16.79,-47,546,-927,26.8,22.9,3.9,26.8,1.4,-30.2,5.73,2.39,-27.5,30.7
2012-08-14 01:39:00,0.0,1.8997,0.0009,385.54,0.39,51.0,32.2,138.05,31.77,24.66,36.54,0.95,-26.07,16.88,-48,546,-928,26.8,22.9,3.9,26.8,1.4,-30.2,5.73,2.40,-27.5,30.8
2012-08-14 01:40:00,0.0,1.9004,0.0010,385.67,0.34,49.4,27.7,138.05,31.77,24.66,36.55,0.93,-26.07,16.98,-48,546,-928,26.8,23.1,4.0,26.8,1.4,-30.1,5.73,2.42,-27.6,30.8
2012-08-14 01:41:00,0.0,1.8999,0.0011,385.48,0.33,44.4,31.7,138.04,31.77,24.66,36.54,0.93,-26.07,17.07,-48,546,-928,26.8,23.7,4.3,26.8,1.4,-30.2,5.73,2.42,-27.5,30.8
2012-08-14 01:42:00,0.0,1.8998,0.0011,385.23,0.29,44.5,34.7,138.05,31.78,24.66,36.54,0.93,-26.06,17.15,-47,546,-928,26.8,23.9,4.5,26.8,1.4,-30.2,5.73,2.39,-27.5,30.8
2012-08-14 01:43:00,0.0,1.8999,0.0010,385.07,0.31,53.7,28.9,138.05,31.78,24.66,36.55,0.94,-26.06,17.23,-47,546,-928,26.8,23.6,4.3,26.8,1.4,-30.2,5.73,2.39,-27.5,30.8
2012-08-14 01:44:00,0.0,1.9007,0.0011,385.31,0.37,44.9,30.7,138.05,31.78,24.66,36.54,0.94,-26.06,17.31,-48,547,-928,26.8,23.2,4.1,26.8,1.4,-30.2,5.73,2.41,-27.5,30.8
2012-08-14 01:45:00,0.0,1.9011,0.0010,385.42,0.31,50.1,31.0,138.05,31.78,24.66,36.54,0.92,-26.04,17.39,-48,546,-928,26.8,23.4,4.2,26.8,1.4,-30.2,5.73,2.42,-27.5,30.8
2012-08-14 01:46:00,0.0,1.9010,0.0009,385.27,0.36,53.0,34.7,138.05,31.78,24.66,36.55,0.94,-26.04,17.46,-48,546,-928,26.8,22.8,3.8,26.8,1.4,-30.2,5.73,2.40,-27.5,30.7
2012-08-14 01:47:00,0.0,1.9006,0.0011,385.29,0.39,58.2,31.0,138.05,31.78,24.66,36.55,0.91,-26.05,17.52,-48,546,-928,26.8,22.9,3.9,26.8,1.4,-30.2,5.73,2.39,-27.5,30.7
2012-08-14 01:48:00,0.0,1.9016,0.0009,385.22,0.38,53.6,31.2,138.05,31.79,24.66,36.55,0.91,-26.04,17.59,-48,546,-928,26.8,23.2,4.1,26.8,1.4,-30.2,5.73,2.40,-27.5,30.7
2012-08-14 01:49:00,0.0,1.9012,0.0009,385.29,0.33,53.7,34.3,138.05,31.79,24.66,36.55,0.93,-26.04,17.67,-48,546,-928,26.8,23.4,4.2,26.8,1.4,-30.2,5.73,2.42,-27.5,30.7
2012-08-14 01:50:00,0.0,1.9019,0.0010,385.35,0.38,52.7,31.2,138.05,31.79,24.66,36.54,0.93,-26.04,17.70,-48,547,-928,26.8,23.4,4.2,26.7,1.4,-30.2,5.73,2.41,-27.5,30.7
2012-08-14 01:51:00,0.0,1.9028,0.0011,385.64,0.27,52.0,31.6,138.05,31.79,24.66,36.54,0.93,-26.03,17.78,-48,546,-928,26.8,22.7,3.8,26.8,1.4,-30.1,5.73,2.39,-27.5,30.8
2012-08-14 01:52:00,0.0,1.9028,0.0009,385.15,0.38,45.8,33.5,138.05,31.79,24.66,36.55,0.92,-26.04,17.83,-48,547,-928,26.8,23.6,4.3,26.8,1.4,-30.2,5.73,2.39,-27.5,30.8
2012-08-14 01:53:00,0.0,1.9029,0.0010,385.03,0.37,49.1,34.6,138.04,31.80,24.66,36.55,0.94,-26.03,17.87,-48,547,-928,26.9,23.7,4.4,26.8,1.4,-30.2,5.73,2.42,-27.5,30.8
2012-08-14 01:54:00,0.0,1.9029,0.0011,385.40,0.34,55.4,28.0,138.05,31.80,24.66,36.54,0.93,-26.04,17.95,-48,547,-928,26.9,23.0,3.9,26.8,1.4,-30.2,5.73,2.42,-27.5,30.8
2012-08-14 01:55:00,0.0,1.9026,0.0010,385.56,0.32,58.7,31.8,138.05,31.80,24.66,36.55,0.94,-26.03,17.98,-48,547,-928,26.9,22.9,3.9,26.8,1.4,-30.2,5.73,2.40,-27.5,30.8
2012-08-14 01:56:00,0.0,1.9028,0.0012,385.37,0.37,64.3,35.4,138.05,31.80,24.66,36.54,0.92,-26.03,18.04,-48,547,-928,26.9,23.4,4.2,26.8,1.4,-30.1,5.73,2.39,-27.5,30.8
2012-08-14 01:57:00,0.0,1.9020,0.0011,385.45,0.36,57.3,31.3,138.04,31.80,24.66,36.55,0.94,-26.02,18.06,-48,547,-927,26.9,23.3,4.2,26.8,1.4,-30.2,5.73,2.40,-27.5,30.8
2012-08-14 01:58:00,0.0,1.9025,0.0010,385.32,0.31,60.3,33.8,138.05,31.81,24.66,36.54,0.94,-26.02,18.12,-48,547,-928,26.9,23.9,4.5,26.8,1.4,-30.2,5.73,2.42,-27.5,30.8
2012-08-14 01:59:00,0.0,1.9024,0.0011,385.35,0.33,50.4,29.7,138.04,31.81,24.66,36.55,0.95,-26.02,18.16,-48,547,-928,26.9,23.7,4.4,26.8,1.4,-30.2,5.73,2.42,-27.5,30.8
2012-08-14 02:00:00,0.0,1.9024,0.0009,385.19,0.31,53.6,28.9,138.04,31.81,24.66,36.54,0.95,-26.02,18.19,-48,546,-928,26.9,24.2,4.7,26.8,1.4,-30.1,5.73,2.39,-27.5,30.8
2012-08-14 02:01:00,0.0,1.9016,0.0009,385.25,0.33,51.4,27.6,138.05,31.81,24.66,36.54,0.95,-26.02,18.24,-48,547,-928,26.9,23.7,4.4,26.8,1.4,-30.2,5.73,2.39,-27.5,30.8
2012-08-14 02:02:00,0.0,1.9007,0.0010,385.49,0.37,51.7,28.5,138.05,31.81,24.66,36.54,0.96,-26.01,18.27,-48,547,-928,26.9,23.5,4.3,26.8,1.4,-30.2,5.73,2.42,-27.4,30.8
2012-08-14 02:03:00,0.0,1.9022,0.0010,385.28,0.35,51.8,32.3,138.04,31.82,24.66,36.54,0.94,-26.01,18.31,-48,547,-928,26.9,23.4,4.2,26.8,1.4,-30.3,5.73,2.42,-27.4,30.8
2012-08-14 02:04:00,0.0,1.9023,0.0009,385.34,0.26,66.2,32.0,138.05,31.81,24.66,36.54,0.94,-26.01,18.34,-48,547,-928,26.9,23.6,4.4,26.8,1.4,-30.3,5.73,2.40,-27.4,30.8
2012-08-14 02:05:00,0.0,1.9014,0.0009,385.34,0.31,63.7,32.0,138.05,31.82,24.66,36.55,0.94,-26.01,18.38,-48,547,-928,26.9,23.7,4.4,26.8,1.4,-30.3,5.73,2.39,-27.4,30.8
2012-08-14 02:06:00,0.0,1.9019,0.0009,385.43,0.32,55.4,27.2,138.05,31.82,24.66,36.55,0.94,-26.01,18.41,-48,547,-927,26.9,23.5,4.3,26.8,1.4,-30.4,5.73,2.41,-27.4,30.8
2012-08-14 02:07:00,0.0,1.9025,0.0011,385.03,0.32,56.9,34.5,138.05,31.82,24.66,36.55,0.95,-26.00,18.43,-48,547,-928,26.9,24.0,4.6,26.8,1.4,-30.3,5.73,2.42,-27.4,30.8
2012-08-14 02:08:00,0.0,1.9026,0.0011,385.22,0.34,50.6,32.6,138.04,31.82,24.66,36.54,0.95,-26.01,18.46,-48,547,-928,26.9,24.0,4.6,26.8,1.4,-30.3,5.73,2.41,-27.4,30.8
2012-08-14 02:09:00,0.0,1.9030,0.0009,385.02,0.34,59.1,29.7,138.04,31.83,24.66,36.54,0.95,-26.00,18.49,-48,547,-928,26.9,24.7,5.0,26.8,1.4,-30.3,5.73,2.39,-27.4,30.8
2012-08-14 02:10:00,0.0,1.9029,0.0010,385.10,0.29,64.0,31.5,138.05,31.83,24.66,36.54,0.95,-26.00,18.52,-48,547,-928,26.9,24.6,4.9,26.8,1.4,-30.3,5.73,2.39,-27.4,30.8
2012-08-14 02:11:00,0.0,1.9029,0.0010,385.34,0.33,60.4,38.6,138.04,31.83,24.66,36.55,0.95,-26.00,18.54,-48,547,-928,26.9,23.5,4.3,26.8,1.4,-30.3,5.73,2.41,-27.4,30.8
2012-08-14 02:12:00,0.0,1.9025,0.0010,385.20,0.31,56.7,30.8,138.04,31.83,24.66,36.55,0.95,-26.00,18.57,-48,547,-928,26.9,23.4,4.3,26.8,1.4,-30.4,5.73,2.42,-27.4,30.8
2012-08-14 02:13:00,0.0,1.9023,0.0009,385.35,0.27,53.7,29.2,138.04,31.83,24.66,36.55,0.94,-26.00,18.59,-48,547,-928,26.9,23.3,4.2,26.9,1.4,-30.3,5.73,2.40,-27.4,30.8
2012-08-14 02:14:00,0.0,1.9029,0.0011,385.08,0.31,64.6,33.3,138.04,31.83,24.66,36.55,0.94,-26.00,18.61,-48,547,-928,26.9,23.6,4.4,26.9,1.4,-30.3,5.73,2.39,-27.4,30.8
2012-08-14 02:15:00,0.0,1.9040,0.0010,385.37,0.30,62.4,36.1,138.04,31.83,24.66,36.54,0.94,-26.00,18.63,-48,547,-928,26.9,23.4,4.3,26.9,1.4,-30.4,5.73,2.40,-27.4,30.8
2012-08-14 02:16:00,0.0,1.9041,0.0008,385.31,0.30,52.8,28.7,138.04,31.83,24.65,36.54,0.94,-26.00,18.65,-48,547,-928,26.9,23.4,4.3,26.9,1.4,-30.3,5.73,2.42,-27.4,30.8
2012-08-14 02:17:00,0.0,1.9042,0.0009,385.04,0.30,60.1,26.6,138.04,31.84,24.66,36.55,0.93,-26.00,18.67,-48,547,-928,26.9,23.7,4.4,26.8,1.4,-30.4,5.73,2.42,-27.4,30.8
2012-08-14 02:18:00,0.0,1.9039,0.0008,385.39,0.34,60.2,32.5,138.04,31.84,24.66,36.55,0.93,-25.99,18.69,-48,547,-928,26.9,23.1,4.1,26.8,1.4,-30.4,5.73,2.40,-27.4,30.8
2012-08-14 02:19:00,0.0,1.9037,0.0010,385.22,0.29,57.5,31.6,138.04,31.84,24.66,36.55,0.94,-26.00,18.70,-48,547,-928,26.9,23.5,4.3,26.9,1.4,-30.3,5.73,2.39,-27.4,30.8
2012-08-14 02:20:00,0.0,1.9035,0.0012,385.10,0.31,53.6,30.8,138.05,31.84,24.66,36.55,0.95,-25.99,18.71,-48,547,-928,26.9,23.4,4.2,26.9,1.4,-30.3,5.73,2.40,-27.4,30.8
2012-08-14 02:21:00,0.0,1.9037,0.0010,385.43,0.32,67.7,34.7,138.04,31.84,24.66,36.55,0.93,-26.00,18.74,-48,547,-928,26.9,22.7,3.8,26.9,1.4,-30.4,5.73,2.42,-27.4,30.8